Brisbane, Australia

9:50 AM AEST on December 08, 2016 (GMT +1000)
Brisbane International

Weather History for YBBN - November, 2013

Change the Weather History Date:

Friday, November 1, 2013

  Actual Average Record
Temperature  
Mean Temperature 70 °F -  
Max Temperature 77 °F 76 °F 86 °F (2003)
Min Temperature 64 °F 61 °F 55 °F (2004)
Cooling Degree Days 6    
Growing Degree Days 20 (Base 50)    
Moisture  
Dew Point 53 °F    
Average Humidity 51    
Maximum Humidity 73    
Minimum Humidity 28    
Precipitation  
Precipitation 0.00 in - - ()
Sea Level Pressure  
Sea Level Pressure 30.16 in    
Wind  
Wind Speed 7 mph ()    
Max Wind Speed 13 mph    
Max Gust Speed -    
Visibility 8.1 miles    
Events      
Averages and records for this station are not official NWS values.
T = Trace of Precipitation, MM = Missing Value Source: Averaged Metar Reports

Daily Weather History Graph

Daily Weather History Graph

Search for Another Location

Airport or City:

Trip Planner

Search our weather history database for the weather conditions in past years. The results will help you decide how hot, cold, wet, or windy it might be!

Date:

Astronomy

Nov. 01, 2013 Rise Set
Actual Time 4:56 AM AEST 6:05 PM AEST
Civil Twilight 4:32 AM AEST 6:30 PM AEST
Nautical Twilight 4:03 AM AEST 6:59 PM AEST
Astronomical Twilight 3:33 AM AEST 7:29 PM AEST
Moon 3:04 AM AEST (11/1) 3:48 PM AEST (11/1)
Length of Visible Light 13h 58m
Length of Day
13h 09m
Waning Crescent, 7% of the Moon is Illuminated
Nov 1
Waning Crescent
Nov 3
New
Nov 10
First Quarter
Nov 18
Full
Nov 26
Last Quarter

Hourly Weather History & Observations

Time (AEST) Temp. Dew Point Humidity Pressure Visibility Wind Dir Wind Speed Gust Speed Precip Events Conditions
12:00 AM 69 °F 57 °F 56% 30.15 in 16 mi East 6.9 mph - -   Partly Cloudy
12:00 AM 69.8 °F 57.2 °F 64% 30.15 in 6.2 mi East 6.9 mph - N/A   Scattered Clouds
12:30 AM 69.8 °F 55.4 °F 60% 30.12 in 6.2 mi East 6.9 mph - N/A   Scattered Clouds
1:00 AM 69 °F 55 °F 52% 30.13 in - East 6.9 mph - -  
1:00 AM 69.8 °F 55.4 °F 60% 30.12 in 6.2 mi East 6.9 mph - N/A   Partly Cloudy
1:30 AM 68.0 °F 55.4 °F 64% 30.12 in 6.2 mi East 5.8 mph - N/A   Partly Cloudy
2:00 AM 68.0 °F 55.4 °F 64% 30.12 in 6.2 mi East 6.9 mph - N/A   Scattered Clouds
2:30 AM 68.0 °F 53.6 °F 60% 30.12 in 6.2 mi East 5.8 mph - N/A   Scattered Clouds
3:00 AM 68 °F 54 °F 50% 30.12 in 16 mi ESE 5.8 mph - -   Partly Cloudy
3:00 AM 68.0 °F 53.6 °F 60% 30.12 in 6.2 mi ESE 5.8 mph - N/A   Partly Cloudy
3:30 AM 68.0 °F 55.4 °F 64% 30.12 in 6.2 mi ESE 6.9 mph - N/A   Partly Cloudy
4:00 AM 68 °F 54 °F 51% 30.14 in - ESE 6.9 mph - -  
4:00 AM 68.0 °F 53.6 °F 60% 30.12 in 6.2 mi ESE 6.9 mph - N/A   Partly Cloudy
4:30 AM 68.0 °F 53.6 °F 60% 30.12 in 6.2 mi East 5.8 mph - N/A   Partly Cloudy
5:00 AM 64.4 °F 55.4 °F 73% 30.15 in 6.2 mi East 5.8 mph - N/A   Partly Cloudy
5:30 AM 64.4 °F 55.4 °F 73% 30.15 in 6.2 mi SSW 1.2 mph - N/A   Partly Cloudy
6:00 AM 65 °F 55 °F 63% 30.17 in 16 mi South 4.6 mph - -   Partly Cloudy
6:00 AM 66.2 °F 55.4 °F 68% 30.15 in 6.2 mi South 4.6 mph - N/A   Partly Cloudy
6:30 AM 68.0 °F 55.4 °F 64% 30.18 in 6.2 mi SSW 8.1 mph - N/A   Partly Cloudy
7:00 AM 71 °F 56 °F 48% 30.19 in - SSE 6.9 mph - -  
7:00 AM 71.6 °F 55.4 °F 57% 30.18 in 6.2 mi SSE 6.9 mph - N/A   Partly Cloudy
7:30 AM 71.6 °F 51.8 °F 50% 30.18 in 6.2 mi SE 6.9 mph - N/A   Partly Cloudy
8:00 AM 73.4 °F 51.8 °F 47% 30.18 in 6.2 mi East 9.2 mph - N/A   Scattered Clouds
8:30 AM 75.2 °F 51.8 °F 44% 30.21 in 6.2 mi ESE 8.1 mph - N/A   Scattered Clouds
9:00 AM 74 °F 52 °F 36% 30.22 in 19 mi ESE 8.1 mph - -   Partly Cloudy
9:00 AM 75.2 °F 51.8 °F 44% 30.21 in 6.2 mi ESE 8.1 mph - N/A   Scattered Clouds
9:30 AM 75.2 °F 51.8 °F 44% 30.21 in 6.2 mi ESE 9.2 mph - N/A   Scattered Clouds
10:00 AM 75 °F 51 °F 32% 30.22 in - SE 9.2 mph - -  
10:00 AM 75.2 °F 51.8 °F 44% 30.21 in 6.2 mi SE 9.2 mph - N/A   Scattered Clouds
10:30 AM 75.2 °F 50.0 °F 41% 30.21 in 6.2 mi SE 9.2 mph - N/A   Scattered Clouds
11:00 AM 75.2 °F 50.0 °F 41% 30.18 in 6.2 mi SE 9.2 mph - N/A   Scattered Clouds
11:30 AM 75.2 °F 50.0 °F 41% 30.18 in 6.2 mi ESE 9.2 mph - N/A   Scattered Clouds
12:00 PM 77.0 °F 51.8 °F 41% 30.18 in 6.2 mi East 9.2 mph - N/A   Scattered Clouds
12:30 PM 77.0 °F 51.8 °F 41% 30.15 in 6.2 mi SE 9.2 mph - N/A   Scattered Clouds
1:00 PM 77 °F 50 °F 28% 30.17 in - ENE 10.4 mph - -  
1:00 PM 77.0 °F 50.0 °F 39% 30.15 in 6.2 mi ENE 10.4 mph - N/A   Partly Cloudy
1:30 PM 75.2 °F 51.8 °F 44% 30.15 in 6.2 mi ENE 8.1 mph - N/A   Partly Cloudy
2:00 PM 75.2 °F 51.8 °F 44% 30.12 in 6.2 mi ENE 9.2 mph - N/A   Partly Cloudy
2:30 PM 75.2 °F 51.8 °F 44% 30.12 in 6.2 mi ENE 10.4 mph - N/A   Partly Cloudy
3:00 PM 75 °F 51 °F 31% 30.14 in 19 mi ENE 11.5 mph - -   Partly Cloudy
3:00 PM 75.2 °F 50.0 °F 41% 30.12 in 6.2 mi ENE 11.5 mph - N/A   Partly Cloudy
3:30 PM 75.2 °F 51.8 °F 44% 30.12 in 6.2 mi ENE 12.7 mph - N/A   Partly Cloudy
4:00 PM 75 °F 52 °F 34% 30.13 in - ENE 12.7 mph - -  
4:00 PM 75.2 °F 51.8 °F 44% 30.12 in 6.2 mi ENE 12.7 mph - N/A   Partly Cloudy
4:30 PM 75.2 °F 51.8 °F 44% 30.12 in 6.2 mi ENE 11.5 mph - N/A   Partly Cloudy
5:00 PM 73.4 °F 51.8 °F 47% 30.12 in - ENE 10.4 mph - N/A   Clear
5:30 PM 71.6 °F 51.8 °F 50% 30.15 in - ENE 9.2 mph - N/A   Clear
6:00 PM 71 °F 52 °F 41% 30.16 in 19 mi ENE 8.1 mph - -   Partly Cloudy
6:00 PM 71.6 °F 51.8 °F 50% 30.15 in - ENE 8.1 mph - N/A   Clear
6:30 PM 69.8 °F 51.8 °F 53% 30.15 in - ENE 6.9 mph - N/A   Clear
7:00 PM 70 °F 52 °F 41% 30.18 in - ENE 6.9 mph - -  
7:00 PM 69.8 °F 51.8 °F 53% 30.18 in - ENE 6.9 mph - N/A   Clear
7:30 PM 69.8 °F 53.6 °F 56% 30.18 in - ENE 5.8 mph - N/A   Clear
8:00 PM 69.8 °F 53.6 °F 56% 30.18 in - NE 8.1 mph - N/A   Clear
8:30 PM 68.0 °F 53.6 °F 60% 30.18 in - NE 8.1 mph - N/A   Clear
9:00 PM 69 °F 52 °F 45% 30.19 in 19 mi ENE 8.1 mph - -   Partly Cloudy
9:00 PM 69.8 °F 51.8 °F 53% 30.18 in - ENE 8.1 mph - N/A   Clear
9:30 PM 69.8 °F 51.8 °F 53% 30.18 in - ENE 6.9 mph - N/A   Clear
10:00 PM 69 °F 53 °F 46% 30.19 in - NE 6.9 mph - -  
10:00 PM 68.0 °F 53.6 °F 60% 30.18 in - NE 6.9 mph - N/A   Clear
10:30 PM 68.0 °F 53.6 °F 60% 30.18 in - NE 6.9 mph - N/A   Clear
11:00 PM 66.2 °F 55.4 °F 68% 30.18 in 6.2 mi NE 5.8 mph - N/A   Partly Cloudy